Weather in Palos Verdes Estates

United States     33°48′18″N   118°23′34″W
temp.,
°C
wind,
m/s
gust,
m/s
humid.,
%
clouds,
%
prec.,
mm/h
press.,
hPa
HPBL,
m
23 may, mon
mon2323:00+15s228414 0.0 1015347
02:00+15sse228578 0.0 1014418
05:00+15se228378 0.0 1013449
08:00+15sse228486 0.0 1014452
11:00+15s228367 0.0 1014450
14:00+15ssw438214 0.0 1012406
17:00+16sw448112 0.0 1011382
20:00+16s22805 0.0 1011327
24 may, tue
tue2423:00+16sse33805 0.0 1011298
02:00+16se33806 0.0 1010332
05:00+16se23802 0.0 1010284
08:00+16se12795 0.0 1010181
11:00+16s33784 0.0 1010197
14:00+17wsw44785 0.0 1009306
17:00+17wsw33795 0.0 1009273
20:00+17s22795 0.0 1009160
25 may, wed
wed2523:00+17sse23820 0.0 101061
02:00+17se22830 0.0 101056
05:00+17se22830 0.0 100975
08:00+17s22820 0.0 101043
11:00+18ssw33815 0.0 1011167
14:00+17sw33823 0.0 1011221
17:00+18ssw44805 0.0 1011285
20:00+17s33830 0.0 1011183
26 may, thu
thu2623:00+17s22850 0.0 101283
02:00+17sse22840 0.0 1011119
05:00+17sse12843 0.0 1012124
08:00+17sse228318 0.0 1013138
11:00+17ssw22810 0.0 1014198
14:00+17sw44810 0.0 1014300
17:00+17sw34825 0.0 1013310
20:00+17wsw3383100 0.0 1014281
27 may, fri
fri2723:00+17wsw3385100 0.0 1015187
02:00+17wsw118533 0.0 1014127
05:00+16w11845 0.0 1014123
08:00+17wsw21835 0.0 1015140
11:00+17wsw2282100 0.0 1016196
14:00+17wsw448219 0.0 1015268
17:00+17w6681100 0.0 1014329
20:00+17w5583100 0.0 1013292